RH
3 3 4 5 5 5 6 7 9 10 11 11 11 11 13 16 17 13 23 25 15 19 24 29 37 39 33 23 26 36 45 44 36 29 27 25 28 30 32 34 33 34 38 46 52
3 4 6 5 5 5 7 8 8 10 10 10 12 12 14 17 15 15 15 17 18 21 23 27 33 38 36 28 20 29 48 38 32 23 24 24 26 28 30 34 36 37 38 40 45
3 5 6 4 5 5 6 7 7 8 8 9 10 10 11 15 18 14 13 13 16 20 25 27 27 28 35 32 28 26 34 24 19 25 29 29 27 28 29 32 35 38 39 40 39
4 5 5 4 5 6 6 6 6 6 6 8 9 9 9 10 15 10 6 10 13 13 17 22 28 28 23 29 27 29 31 30 27 26 26 27 29 28 30 34 35 37 39 41 40
4 5 4 5 5 5 5 5 5 5 6 5 6 8 8 8 9 8 6 7 7 7 13 16 25 23 26 25 25 26 28 28 29 31 32 32 30 30 32 34 35 37 40 42 43
4 5 5 5 5 5 5 6 6 6 6 6 8 8 9 7 10 8 7 6 7 6 8 9 9 16 22 21 24 26 25 29 28 26 26 24 28 28 27 27 30 33 35 37 40
5 5 5 6 6 5 5 6 6 6 6 7 7 8 7 8 8 9 7 6 6 8 7 8 8 8 9 11 12 12 13 15 15 14 14 16 18 16 18 18 17 16 17 17 20
5 5 6 6 6 6 6 6 6 7 6 6 7 7 7 7 7 8 7 5 5 4 6 7 8 9 9 8 9 9 9 12 9 8 6 7 20 16 14 16 16 17 17 18 18
6 6 6 6 6 6 6 6 7 6 6 8 11 9 7 7 7 6 5 5 5 4 4 5 6 6 7 8 8 9 12 11 9 7 7 10 21 18 17 18 18 18 19 20 20
6 6 7 7 7 7 7 7 7 7 7 8 9 10 7 7 6 5 4 6 6 6 6 7 7 8 8 10 13 10 10 12 13 11 12 16 19 19 20 20 20 20 21 22 22
7 7 7 7 7 8 8 9 11 10 11 13 10 10 7 6 8 5 6 8 9 10 10 10 11 10 9 9 9 8 10 10 9 9 14 18 21 22 21 21 20 20 22 23 22
8 8 7 7 9 9 12 17 14 11 10 9 9 8 7 7 8 8 8 10 9 8 9 9 10 9 8 7 8 9 11 11 10 9 13 18 23 24 24 22 21 20 20 23 24
8 8 8 9 10 10 18 17 14 11 12 10 9 10 9 8 8 9 10 10 12 12 12 12 8 9 9 9 9 10 12 10 12 10 12 13 24 27 28 26 20 19 20 22 24
9 9 9 11 11 11 18 14 10 14 18 10 9 8 8 7 7 8 8 10 9 9 8 8 8 9 9 10 12 12 9 9 10 14 19 16 28 32 31 29 23 22 21 23 24
9 9 10 12 15 14 16 12 10 17 48 13 9 9 7 11 7 8 9 11 11 11 14 12 10 10 10 9 10 14 10 12 13 15 17 16 14 34 32 28 30 26 22 24 24
10 11 12 15 18 18 14 10 9 34 42 14 10 10 9 8 9 8 10 9 10 11 12 11 10 11 10 9 10 12 15 17 17 20 26 24 20 33 31 28 25 25 24 24 29
12 12 14 18 22 15 11 10 31 43 17 13 10 11 11 9 9 9 10 12 15 25 15 12 11 10 13 13 13 17 21 45 36 38 46 31 28 30 29 30 28 24 26 28 28
13 14 17 18 19 13 10 21 42 22 15 11 11 11 11 11 12 13 13 12 13 18 16 19 22 14 13 17 16 16 22 51 54 41 34 28 22 37 27 26 25 27 26 29 31
14 15 18 17 15 11 19 37 31 18 13 11 11 12 13 14 13 14 15 17 13 16 22 21 20 13 14 14 17 21 28 25 32 29 28 20 32 32 27 28 25 26 29 32 33
17 17 21 15 13 14 28 32 18 15 12 11 13 13 14 14 14 16 17 17 14 15 19 19 21 15 15 14 15 24 24 38 48 52 50 29 29 34 30 28 28 29 31 33 34
24 24 21 14 14 23 34 22 17 13 11 13 16 13 15 13 14 18 20 17 14 12 15 17 22 19 15 17 24 23 27 33 35 39 53 40 34 33 31 30 30 30 33 35 33
27 35 18 15 22 29 28 15 14 12 13 14 15 14 16 13 15 18 20 19 15 14 16 20 26 24 23 24 20 23 30 34 51 56 39 39 32 28 30 31 29 31 34 37 37
32 31 21 22 35 32 18 18 14 13 13 15 16 16 15 15 17 18 21 18 15 16 19 15 26 35 26 29 26 29 37 45 48 37 39 49 43 32 30 29 29 31 33 36 38
32 34 25 25 29 23 19 19 16 14 15 16 17 18 17 18 18 20 22 16 16 18 18 16 26 43 44 53 49 41 42 43 41 41 39 38 34 36 34 33 32 31 32 36 38
32 30 22 31 32 24 20 19 17 16 16 16 18 18 18 21 21 23 20 18 17 19 15 24 33 33 33 28 29 35 37 37 42 34 39 29 29 28 27 28 28 29 29 31 35
28 26 21 25 24 25 22 21 20 17 16 17 18 18 20 22 19 23 21 20 19 20 21 26 35 27 32 27 27 29 27 34 36 38 34 33 32 32 31 32 31 32 32 33 39
27 24 22 25 22 27 25 23 21 19 18 18 19 19 22 22 20 21 21 21 22 23 25 31 35 32 40 33 35 41 36 33 29 29 31 34 32 33 32 31 31 30 33 38 40